Theta_e
324 325 325 325 326 325 324 323 323 323 323 323 324 323 325 334 344 351 354 355 356 357 357 356 358 361 360 359 358 358 357 356 356 355 354 350 346 346 345 345 345 344 344 343 342 344 344 345 345 346 346 346 347 346 346 347 348 347 347 348 348 349 351 349 347 348 346 347 349 349 349 348 348 349 347 343 340 339 340 341 341 342 344 347 348 348
324 325 326 325 326 325 323 323 322 322 322 322 322 323 320 324 338 349 354 355 354 357 357 357 359 359 358 357 356 358 359 357 356 355 354 351 348 345 343 344 344 343 342 342 343 343 344 345 345 345 345 346 346 344 346 347 347 346 346 348 348 348 349 347 347 347 344 346 347 348 348 348 348 348 346 345 344 343 340 340 342 342 343 345 347 348
324 324 325 324 323 323 323 322 321 321 321 322 322 320 319 330 345 351 355 355 352 356 357 356 359 358 357 356 356 358 360 358 356 355 353 352 349 346 346 345 344 343 343 342 342 343 343 344 345 345 345 346 344 343 346 347 347 346 346 347 346 346 347 346 346 346 342 344 346 347 348 348 348 347 347 347 348 349 345 341 343 342 342 344 345 346
323 324 325 322 321 322 322 321 320 320 319 320 322 317 321 339 351 349 353 354 350 353 355 355 358 359 358 356 356 358 358 357 356 354 353 353 350 348 349 348 344 343 343 342 342 342 342 343 343 344 345 345 343 343 346 347 346 346 345 346 345 344 345 344 344 344 342 344 346 347 348 348 348 348 349 349 350 351 348 343 342 343 342 343 343 344
323 324 323 322 322 322 321 321 320 319 317 319 320 318 325 344 350 348 352 352 351 352 352 355 355 357 359 357 357 356 354 356 355 354 352 352 352 351 350 350 347 345 343 342 342 342 342 342 343 344 344 344 343 343 345 346 346 346 345 345 344 342 343 342 342 344 343 344 348 348 348 349 349 349 350 351 350 351 348 344 343 343 343 343 344 345
323 323 322 322 323 321 321 321 320 319 317 317 320 320 324 339 347 348 350 350 351 351 351 353 352 353 357 358 357 353 354 356 354 354 353 351 352 351 350 350 350 347 344 341 341 342 342 342 343 343 343 344 343 344 345 346 345 346 345 345 346 343 341 340 341 343 344 345 348 349 349 350 350 350 351 351 349 349 346 343 343 344 343 343 344 345
322 322 322 322 322 322 321 321 321 321 318 316 322 323 321 333 346 347 346 346 347 349 350 349 351 350 351 356 356 352 355 358 355 354 354 353 352 350 349 350 350 350 346 342 340 342 342 342 342 342 342 344 343 344 344 345 345 346 345 345 346 345 341 339 340 343 345 346 348 350 349 350 350 349 350 351 350 349 347 344 344 344 342 343 344 344
323 322 322 322 322 322 321 321 322 322 319 318 325 325 325 336 346 346 345 343 343 348 348 346 350 351 349 354 356 352 355 358 357 356 355 354 353 350 349 350 350 351 349 344 341 341 342 341 342 342 342 343 343 344 344 344 345 345 346 345 345 345 342 339 339 342 345 346 349 350 350 350 350 348 350 352 351 351 349 345 344 344 343 343 344 344
324 322 323 322 322 321 321 321 322 322 320 322 326 324 325 333 340 345 346 341 341 347 347 344 345 352 350 352 355 353 355 358 358 357 356 355 354 351 350 350 351 351 350 348 344 342 342 341 342 342 342 342 343 344 344 344 344 344 344 344 344 345 342 339 339 341 344 347 349 351 350 351 351 349 350 352 353 352 349 345 344 344 343 344 345 345
324 323 323 322 322 322 322 322 323 323 322 324 325 324 326 329 331 341 343 338 340 347 346 342 340 350 352 351 355 355 355 357 356 356 356 355 354 353 351 351 351 350 349 348 347 345 343 341 343 342 342 343 342 343 344 344 344 343 343 344 345 345 342 340 339 340 343 347 350 351 350 350 350 350 351 352 352 351 349 346 345 344 343 345 345 345
322 323 324 323 324 323 322 323 322 322 323 323 326 326 327 331 330 334 338 337 339 341 343 341 339 347 350 350 354 356 355 355 354 355 356 355 354 354 352 352 351 350 349 349 349 348 346 342 342 343 342 342 343 343 344 343 343 344 343 344 346 345 341 340 339 340 342 346 350 351 350 350 350 351 351 352 351 351 349 348 347 346 344 345 345 345
322 323 325 325 324 325 324 324 324 323 323 323 329 330 327 335 338 333 331 331 333 335 337 340 340 340 345 349 351 354 355 354 353 354 355 355 355 354 353 353 351 351 350 349 349 349 348 344 342 343 343 343 344 343 343 343 343 343 343 342 345 345 342 340 340 340 341 344 347 349 350 350 350 351 351 351 350 350 350 350 350 349 346 345 346 346
325 324 325 324 324 326 325 327 327 326 326 324 329 330 325 330 334 331 329 327 332 337 334 338 340 339 348 355 350 350 353 353 353 353 354 355 355 355 354 353 352 351 351 350 350 349 348 347 343 343 344 343 344 343 343 344 343 344 343 342 344 345 342 340 340 341 341 342 344 347 350 350 350 351 351 351 350 349 350 350 350 350 347 345 347 347
324 324 325 324 324 327 325 326 325 324 328 325 326 328 325 326 328 329 330 328 330 335 332 336 342 342 353 358 350 348 350 353 354 353 355 355 354 354 353 353 352 351 352 351 350 349 348 347 345 344 344 343 344 344 343 343 344 344 344 343 344 345 342 340 340 341 341 341 342 346 350 351 350 351 350 350 350 350 350 350 350 350 347 344 345 346
320 323 327 325 324 327 327 327 328 327 327 327 329 332 328 329 331 330 332 331 330 332 331 334 342 345 352 352 348 349 347 350 355 353 354 355 354 354 353 354 354 352 353 353 351 350 348 348 347 345 344 344 344 344 344 344 345 345 345 345 344 345 343 339 339 340 339 339 341 346 351 351 350 351 350 350 350 349 349 349 349 350 348 345 343 344
319 323 327 324 324 327 327 328 329 328 326 328 329 328 326 332 336 331 333 336 333 332 334 339 344 347 351 350 347 349 350 351 353 352 354 354 354 354 354 355 355 354 354 354 352 351 349 348 348 346 346 345 344 344 345 345 345 345 345 345 344 345 343 339 336 337 336 336 340 346 350 351 351 351 349 349 350 349 348 348 349 348 347 346 344 345
319 324 325 323 326 327 326 327 327 326 330 331 326 326 331 336 335 328 328 334 330 329 336 343 348 347 348 352 351 352 355 353 351 352 353 354 354 354 355 356 356 355 355 355 355 353 351 350 348 347 347 346 345 345 346 346 346 346 346 345 345 345 344 340 335 335 335 334 338 343 347 349 350 350 348 348 349 348 348 347 347 346 344 344 345 345
319 323 325 324 325 325 323 325 326 325 331 332 324 326 333 331 332 331 328 329 328 332 340 345 348 347 347 353 354 353 355 354 352 353 352 353 354 355 355 356 356 356 355 356 356 354 353 351 349 348 348 347 346 346 346 347 347 347 346 346 346 346 345 342 336 334 334 333 334 339 344 345 346 347 347 346 346 346 347 347 345 344 343 342 343 344
321 322 325 325 323 323 324 323 325 325 327 329 326 329 330 325 328 332 328 325 325 336 348 348 345 345 347 350 352 353 354 353 353 354 352 352 353 353 354 356 356 356 355 355 355 354 354 351 350 349 349 349 348 347 347 349 349 348 348 347 346 346 346 344 339 335 335 333 332 334 338 341 341 343 344 344 343 343 345 345 344 342 342 342 343 345
323 322 324 327 323 323 326 324 324 325 325 327 326 328 330 329 331 330 328 328 329 338 349 347 344 347 350 351 352 352 351 349 350 351 351 350 350 351 353 353 354 355 355 355 354 354 354 353 352 351 351 351 349 348 347 349 351 350 349 349 348 347 347 347 343 336 335 335 334 333 334 337 339 339 341 342 341 340 340 341 342 340 341 342 342 345
326 324 321 325 324 323 324 324 324 326 326 326 325 325 325 327 328 327 327 328 331 341 348 346 347 350 349 348 348 348 348 346 347 347 346 346 347 349 350 350 351 353 354 355 355 355 354 353 353 352 352 351 350 349 347 347 350 350 349 349 347 347 348 348 347 341 336 335 336 335 334 334 334 335 337 338 338 338 337 338 339 340 340 341 342 344
325 325 322 323 322 322 323 323 323 324 325 325 325 325 325 326 325 324 324 326 331 341 344 345 348 349 345 345 345 345 345 345 345 345 344 345 345 346 347 347 348 350 351 353 354 354 354 353 353 353 352 352 350 350 348 347 349 351 351 350 348 348 347 348 348 345 339 336 336 337 336 335 334 332 332 334 335 335 335 335 336 338 339 341 342 344
323 325 324 324 323 322 322 323 323 323 323 325 324 325 326 328 328 324 323 329 336 339 340 344 348 348 344 343 343 344 344 344 344 343 342 342 342 344 345 345 347 349 350 352 354 354 354 354 354 353 353 352 351 350 349 348 350 351 352 352 351 350 348 349 350 347 342 338 337 338 338 338 338 336 334 333 333 333 333 333 334 335 337 340 342 345
324 326 325 326 329 328 326 326 325 323 324 326 324 324 324 323 327 328 328 336 342 342 344 347 349 348 346 343 342 342 343 344 343 341 341 340 340 342 343 344 346 347 348 350 353 353 352 353 354 354 353 352 352 351 352 351 351 352 351 352 353 352 350 350 351 350 346 342 341 344 345 344 342 342 340 338 335 333 333 333 334 336 337 339 342 344
322 327 329 329 331 333 332 330 327 324 324 324 322 322 323 322 326 331 335 344 344 339 343 348 348 347 345 344 343 342 343 345 343 341 340 339 339 340 341 342 342 344 346 348 350 351 350 349 350 351 351 351 352 352 354 354 353 352 351 351 354 354 353 351 351 352 351 347 348 351 352 350 347 345 345 344 342 339 337 336 336 339 341 342 343 344
322 327 332 333 332 330 330 329 327 325 324 322 321 321 321 323 328 330 336 346 345 340 342 346 346 345 344 344 345 344 344 344 342 341 339 338 338 338 339 340 340 341 343 345 348 350 349 348 349 350 350 351 351 352 353 354 353 353 352 351 352 354 355 353 352 352 353 352 352 352 351 351 351 349 347 345 343 341 341 341 341 342 344 345 345 345
329 331 333 339 339 334 333 334 332 328 323 319 319 320 320 322 330 335 339 343 344 344 346 344 343 345 343 343 345 345 344 343 341 340 339 337 337 337 338 338 338 339 340 342 345 347 348 348 348 350 350 350 351 351 352 353 352 352 352 351 351 353 355 354 354 354 355 354 353 352 349 351 354 353 349 346 344 341 340 343 345 346 347 347 347 346
332 328 325 331 334 330 330 332 329 325 321 318 318 319 319 321 327 332 335 337 341 345 346 344 343 343 343 342 343 344 344 342 339 339 338 336 336 336 336 336 337 337 338 339 341 343 345 345 345 347 348 349 350 351 351 351 351 352 352 351 350 350 352 353 353 354 355 355 354 353 352 353 354 354 352 352 351 347 341 340 344 349 350 349 348 348
326 323 320 322 323 321 323 324 322 321 320 320 319 318 318 321 326 328 330 338 346 348 344 342 342 342 341 341 340 341 341 339 338 337 336 336 336 335 335 335 335 335 335 336 338 339 340 341 342 344 345 345 347 349 350 351 352 353 353 351 350 350 351 351 352 352 353 354 355 354 354 354 354 354 354 354 354 352 349 345 343 349 352 351 350 349
322 325 324 321 320 320 321 321 320 318 319 321 320 319 318 324 332 335 335 339 345 345 341 340 343 343 342 340 339 338 338 337 337 336 335 335 335 334 334 334 334 334 333 334 335 336 337 339 341 341 342 343 344 345 347 349 350 350 352 353 353 352 353 353 353 353 353 354 354 355 355 355 354 353 353 354 354 352 352 351 348 349 351 351 350 349
319 323 324 324 325 323 321 322 319 317 319 320 319 320 320 323 331 339 341 340 341 341 339 340 343 343 340 338 337 337 337 336 335 335 334 334 333 333 333 332 333 333 332 332 333 334 334 336 339 341 340 341 342 342 343 345 346 347 350 352 353 353 353 354 354 354 353 353 353 353 354 354 353 353 352 353 353 351 351 351 351 351 352 351 349 348
319 323 326 330 330 326 321 320 319 318 320 320 318 320 322 321 323 333 341 342 340 340 340 340 342 341 339 336 334 335 335 334 334 333 332 332 332 331 331 330 331 331 331 330 331 332 332 332 335 338 339 339 340 341 341 343 345 346 348 349 350 352 353 353 353 352 352 352 352 351 352 352 351 352 352 351 352 351 350 350 351 351 352 352 350 348
322 324 326 327 329 327 321 318 321 322 322 320 319 319 323 326 326 332 339 340 338 338 339 339 340 339 337 334 333 333 332 332 332 331 330 330 330 330 329 329 329 329 329 329 328 330 331 330 330 333 337 338 339 340 341 340 340 341 343 346 347 348 351 352 352 353 353 352 352 352 352 352 351 351 351 351 351 350 350 350 350 351 351 351 350 349
327 327 324 323 325 325 321 322 328 328 321 319 320 320 324 330 332 335 338 338 336 336 336 336 337 337 335 332 331 331 330 330 330 330 329 329 329 328 328 328 327 327 327 327 326 326 328 329 327 327 332 337 339 339 338 337 333 331 334 341 345 345 347 349 350 352 353 353 353 353 353 353 353 352 352 352 351 351 351 351 351 351 351 350 350 349
331 328 326 325 323 322 325 327 328 324 320 321 321 321 324 329 332 335 337 336 335 335 334 335 335 335 334 332 331 329 328 329 329 329 329 328 327 326 326 326 326 326 325 325 325 325 325 326 326 325 327 331 336 337 336 333 330 325 324 330 335 339 342 344 345 347 349 349 351 352 354 354 354 353 352 352 352 352 352 352 352 352 352 351 350 349
328 327 330 332 326 322 325 327 323 321 323 326 324 321 324 327 329 335 336 333 333 333 334 335 333 333 333 331 329 328 326 326 327 328 328 327 326 324 324 324 325 325 324 323 323 323 323 323 325 326 325 325 329 334 335 333 329 323 320 320 322 326 331 334 337 339 341 344 347 348 350 351 352 352 352 352 352 351 352 352 353 353 352 352 351 351
330 329 329 331 327 321 322 326 329 326 323 325 326 323 323 322 324 332 335 331 330 331 332 333 332 331 331 330 329 327 325 325 325 324 325 327 325 323 322 322 322 323 323 322 321 321 321 321 323 326 326 325 325 327 329 329 325 321 319 318 317 318 321 323 326 329 331 336 342 344 346 347 348 350 351 352 352 352 352 352 353 353 352 352 352 351
329 328 327 329 329 327 326 327 328 324 320 324 327 322 318 318 320 327 332 328 327 328 329 331 331 330 330 330 329 327 327 330 329 324 322 324 323 322 321 321 321 321 321 321 321 320 320 320 322 324 325 324 324 324 324 322 320 318 318 318 316 315 316 318 321 322 324 326 330 334 337 340 342 344 346 347 349 350 351 351 352 352 352 352 352 351
328 330 332 331 329 330 328 324 323 324 325 331 332 323 316 316 319 325 331 329 325 326 328 329 329 329 329 329 328 327 329 332 330 323 320 321 321 321 320 320 320 321 321 321 321 320 319 319 320 321 322 322 323 323 323 321 318 315 316 318 317 314 314 316 319 322 322 321 322 325 327 329 332 333 335 336 338 342 345 349 350 351 351 352 352 352
328 329 328 327 327 330 328 323 324 329 329 329 329 323 316 315 319 326 332 330 323 322 327 329 328 328 328 328 327 327 327 327 325 321 320 321 320 320 320 320 320 320 320 320 320 320 320 319 319 319 320 321 321 322 321 320 317 314 315 318 317 315 314 316 319 320 319 318 318 321 324 325 327 330 331 331 331 333 336 339 344 347 348 350 351 351
326 325 323 323 325 327 326 322 326 334 332 324 322 320 316 316 319 324 329 328 321 320 326 329 328 328 328 327 326 325 324 323 321 320 320 320 320 320 319 319 320 320 319 320 320 320 320 319 319 318 318 319 320 320 320 318 315 313 315 318 319 316 314 315 317 319 320 319 317 317 319 320 322 326 329 329 328 328 330 332 334 338 343 346 348 350
329 326 323 323 322 324 327 324 325 332 330 321 319 319 318 319 321 322 323 323 320 320 324 327 328 327 327 326 324 322 321 321 320 320 320 320 320 319 319 319 319 320 319 320 319 319 319 318 318 317 317 318 318 318 318 317 314 313 313 315 318 317 313 312 315 317 319 321 319 316 314 314 316 319 323 325 323 322 327 331 331 332 336 340 343 346
329 325 324 324 322 322 324 322 325 331 328 319 319 323 324 325 324 322 321 320 319 320 322 324 326 327 325 323 321 320 320 320 320 320 320 320 320 319 320 319 319 319 319 319 319 319 318 317 317 316 315 316 318 318 318 316 315 315 314 313 316 316 313 312 314 315 316 317 317 315 312 312 313 314 317 321 319 318 325 331 331 333 336 337 337 338
326 323 325 326 322 320 322 321 323 328 326 321 322 325 326 325 323 320 320 320 319 319 321 321 322 323 323 321 320 320 319 319 319 320 319 319 320 319 319 319 319 319 319 318 319 318 317 316 315 314 313 314 316 318 317 316 316 317 317 315 314 313 311 311 313 314 314 313 313 312 311 311 312 311 314 317 317 320 329 334 335 336 338 338 337 335
325 323 325 327 325 324 327 325 322 323 323 322 323 324 324 323 321 320 320 320 319 319 319 320 320 320 321 320 320 320 319 319 319 319 319 319 319 319 319 319 319 319 318 318 318 317 316 315 313 312 312 312 313 315 315 314 314 316 317 316 314 312 311 310 311 311 311 310 310 310 310 310 311 312 316 320 322 327 335 338 338 337 337 339 341 338
320 319 321 323 323 323 323 322 321 321 322 322 322 323 323 322 321 320 319 319 319 318 318 319 320 319 319 320 319 319 319 319 319 319 319 319 319 318 318 318 318 318 317 317 316 316 315 314 313 312 311 311 311 312 312 312 312 313 314 314 313 312 310 310 309 309 308 308 309 309 310 311 311 312 317 323 329 333 335 335 335 335 335 338 341 340
319 318 321 323 322 320 320 321 321 321 322 322 322 322 321 320 320 320 319 319 318 318 318 318 318 319 319 318 318 318 319 319 319 318 318 318 318 318 318 317 317 317 316 316 315 315 314 314 313 312 311 310 311 312 312 312 313 313 313 312 312 311 310 309 309 308 308 308 308 308 309 311 312 313 315 320 329 334 334 333 332 333 335 338 339 339
322 320 322 325 324 321 319 320 319 319 321 320 320 320 320 319 319 319 318 318 318 318 318 317 317 318 318 318 318 318 318 318 318 318 318 317 317 317 317 316 316 315 315 315 314 314 314 313 313 312 312 313 314 315 314 314 315 315 315 314 313 312 311 310 309 308 308 308 307 308 309 311 313 315 316 318 323 329 332 332 331 331 334 335 335 335
321 320 321 323 327 327 325 322 320 320 320 319 319 319 318 318 318 318 318 317 318 318 317 317 316 317 318 318 318 317 317 317 317 317 316 316 316 316 315 315 315 314 314 314 314 313 313 313 312 312 313 314 315 315 315 316 316 316 316 315 314 313 312 312 311 309 309 308 308 308 309 309 311 314 317 319 320 324 328 330 330 330 331 331 330 329
320 323 323 323 327 330 326 322 321 321 321 320 320 319 318 318 318 317 317 317 317 317 317 317 316 316 317 317 317 317 316 316 316 316 315 315 315 315 314 314 314 313 313 313 313 312 312 312 312 312 313 315 315 314 315 314 314 314 314 314 314 313 313 313 313 312 311 311 310 310 309 309 309 310 313 316 317 318 320 323 325 326 327 327 325 323
320 323 324 325 329 328 323 320 320 320 320 320 320 319 319 319 318 318 318 317 317 317 317 316 316 316 316 316 316 316 316 316 315 315 315 314 314 314 313 313 313 313 312 312 312 311 311 311 312 312 313 314 313 313 313 313 313 313 314 314 314 314 314 314 314 314 314 313 313 312 311 311 310 309 309 310 311 312 314 317 318 318 320 322 324 322
Wind_Speed
7 4 3 5 5 7 7 7 8 8 3 4 6 4 2 4 6 9 7 10 15 8 4 7 6 7 8 8 8 12 16 15 14 13 13 18 25 32 32 29 30 27 27 31 30 31 32 31 31 29 25 24 26 24 23 25 24 18 17 18 19 18 17 18 18 17 17 20 19 17 14 11 10 8 6 6 8 10 10 10 9 9 11 12 12 12
6 3 5 7 7 8 7 7 8 7 5 5 6 5 5 3 4 11 12 12 12 5 2 5 6 6 7 7 7 9 10 11 14 13 13 17 21 27 27 25 29 28 28 32 32 31 32 32 31 28 27 29 27 24 25 28 24 19 17 18 19 19 19 19 18 17 18 20 20 18 16 12 10 9 7 6 6 7 8 9 9 9 10 11 11 10
4 3 7 9 8 8 7 7 8 8 6 5 6 4 3 2 2 6 9 10 8 3 4 6 5 4 5 5 6 8 8 10 14 14 13 18 21 24 22 23 28 27 30 35 33 31 31 32 31 29 30 30 26 24 27 28 25 20 19 19 20 20 20 20 19 17 17 20 19 18 18 15 12 10 8 7 6 6 7 8 8 9 10 10 9 9
3 4 10 11 8 8 8 9 8 8 5 5 5 3 2 3 5 5 6 10 5 2 6 7 4 4 5 4 4 7 7 6 9 10 10 14 20 23 20 22 26 25 32 37 33 32 32 31 32 32 33 31 26 26 28 28 25 21 22 21 21 21 20 21 20 18 18 20 20 19 18 15 13 12 10 9 8 8 8 9 9 9 10 9 9 8
5 9 13 12 8 9 9 10 8 6 5 5 6 5 4 6 9 9 10 9 2 4 8 9 5 1 5 7 5 4 3 4 7 8 8 10 14 19 18 19 21 21 30 37 33 34 34 33 34 33 33 31 28 28 28 28 25 22 23 21 20 20 19 20 20 19 20 21 20 20 19 17 15 14 13 11 11 10 10 10 10 10 9 9 8 8
7 13 12 8 8 9 8 9 8 7 5 4 7 9 8 9 9 9 11 9 3 2 7 9 4 2 4 8 8 4 3 5 9 11 12 13 13 14 17 18 18 17 25 34 33 34 36 35 35 34 33 32 30 29 28 27 25 23 22 22 21 19 19 20 20 21 22 21 21 22 21 19 17 17 16 14 12 11 10 11 11 10 10 10 10 10
6 12 9 8 11 10 8 8 8 8 6 4 7 8 9 12 11 10 12 10 4 3 10 8 4 1 4 6 8 7 7 8 9 10 15 18 17 18 21 20 20 18 21 29 31 33 38 37 36 35 33 32 31 30 28 26 25 24 23 23 22 20 19 21 22 23 23 21 22 22 20 19 18 18 17 15 13 11 11 11 11 11 11 11 11 10
6 10 7 8 11 9 7 7 7 8 6 5 7 5 8 13 15 15 14 10 4 3 6 7 3 4 4 5 7 9 10 10 10 10 13 19 23 26 29 25 23 21 20 26 28 29 37 39 37 36 33 32 32 30 29 27 26 26 24 24 23 21 21 22 23 25 24 23 22 21 19 19 18 18 16 14 13 11 11 12 12 12 13 12 12 12
7 10 9 9 9 7 6 8 9 8 5 6 8 5 7 10 13 15 12 8 4 4 3 7 3 4 2 3 6 8 10 11 13 14 14 19 26 31 33 29 26 24 22 24 25 26 35 40 37 36 33 32 31 30 30 28 26 26 25 25 24 21 22 23 24 26 25 24 23 21 20 19 17 17 16 14 13 13 12 13 13 13 14 14 13 13
7 11 10 8 7 7 7 10 10 7 6 7 6 5 4 5 7 10 9 6 4 3 4 10 7 3 2 2 6 7 8 11 12 12 13 20 27 30 33 33 29 28 26 24 24 23 30 39 37 36 35 32 32 30 29 29 27 26 26 26 24 22 22 24 25 27 26 25 24 22 21 20 18 17 17 16 14 14 13 14 14 13 14 14 14 13
9 13 11 5 6 10 10 11 11 10 11 6 1 2 1 0 2 5 6 5 5 2 7 12 11 6 1 2 6 7 6 10 11 9 11 17 24 28 33 34 31 31 30 28 26 21 24 35 37 35 36 34 33 31 30 29 27 25 26 27 26 23 22 24 26 27 27 27 26 24 23 22 19 18 18 17 16 15 15 15 14 13 14 15 14 13
6 7 5 5 9 11 9 7 8 10 10 4 2 2 1 3 3 3 2 5 5 5 6 12 12 7 3 4 8 10 5 7 12 12 13 17 22 28 31 32 33 34 32 30 30 24 21 30 36 34 36 36 35 34 32 30 27 25 25 27 27 24 23 25 27 28 28 28 28 26 25 24 21 19 19 19 19 17 16 15 14 13 14 16 14 14
4 5 4 6 10 7 6 2 4 4 3 3 4 4 4 1 2 2 2 3 4 4 5 12 12 4 5 4 7 15 9 7 13 15 17 20 25 29 30 31 34 35 34 31 31 29 22 26 34 35 35 36 36 35 33 31 28 25 25 26 26 25 25 26 27 29 28 28 29 27 25 24 22 20 20 20 19 18 16 15 15 14 15 16 15 15
3 6 4 3 6 5 6 4 3 2 1 3 3 4 4 3 2 2 3 1 2 4 2 11 12 2 4 3 5 9 9 9 15 18 21 25 28 30 30 31 32 33 34 33 32 32 27 26 31 35 35 36 37 35 34 32 28 26 25 26 26 25 25 26 27 29 28 27 28 27 25 24 23 22 21 21 19 18 17 16 15 15 16 16 14 14
1 5 4 2 4 7 6 5 7 4 0 2 4 5 4 4 4 3 3 2 3 4 1 7 7 1 2 3 8 3 9 10 14 16 19 23 26 29 29 28 30 31 33 34 33 34 31 28 30 34 35 35 36 36 34 33 29 27 26 26 26 25 26 27 28 28 28 27 27 28 26 24 24 23 21 21 20 19 18 17 16 15 15 15 13 13
0 4 5 6 5 6 6 5 6 5 1 3 2 5 3 4 4 2 4 4 4 3 1 2 2 1 2 4 7 4 10 10 14 18 18 20 21 23 24 24 27 30 31 32 32 33 33 31 30 33 36 34 35 36 36 34 31 28 27 25 25 25 25 27 28 28 28 27 27 28 28 25 25 24 22 21 22 20 18 17 17 16 15 14 13 13
3 4 5 9 6 2 1 4 5 7 3 3 2 2 5 4 6 3 3 2 3 4 0 2 2 1 1 2 7 5 8 6 9 15 18 20 21 21 22 23 25 28 29 30 31 32 33 34 33 34 36 35 35 36 36 36 34 31 28 26 25 25 24 26 27 28 27 27 27 28 28 27 26 25 24 22 22 22 19 17 17 16 16 15 13 14
1 3 6 5 4 6 8 4 4 7 7 3 0 4 4 1 4 3 0 2 3 3 0 3 2 1 1 1 5 3 4 4 6 11 13 16 18 16 16 19 22 25 27 28 31 32 33 35 36 36 36 35 35 35 33 31 33 34 30 27 27 25 25 26 27 28 28 27 28 29 29 29 27 26 25 22 21 21 20 19 18 17 17 16 14 14
1 1 6 3 3 8 9 4 1 4 5 6 3 3 1 1 2 1 1 2 2 3 1 3 3 1 1 1 2 2 3 3 4 11 11 11 13 14 14 14 15 17 21 26 29 31 31 33 35 34 33 32 33 34 29 20 23 33 34 30 29 26 23 24 27 29 28 27 28 29 30 29 28 27 26 24 21 20 20 20 19 19 18 16 16 15
2 2 4 5 5 7 5 4 1 4 3 3 2 3 1 3 3 3 3 3 4 3 2 2 2 2 2 2 1 3 6 7 4 6 11 11 14 16 18 17 15 14 15 20 24 25 26 28 30 29 28 28 29 31 30 21 18 28 36 35 34 32 26 24 26 28 29 28 28 28 29 29 28 27 26 25 23 21 20 20 20 19 18 18 18 17
3 3 2 6 7 4 2 1 1 2 3 3 1 2 1 1 1 2 2 1 4 4 4 4 1 3 3 1 3 5 6 6 5 5 11 14 18 20 21 20 17 14 12 10 14 16 18 21 25 26 26 27 28 30 34 31 24 26 35 38 36 34 31 28 27 28 29 28 27 27 28 28 28 28 27 26 25 23 21 20 20 20 19 19 19 19
2 3 2 4 5 3 2 4 4 4 4 3 3 3 4 2 2 2 3 2 3 4 4 5 3 1 2 1 4 5 5 5 5 5 13 17 19 22 21 21 19 16 13 9 8 11 14 18 23 24 22 24 28 31 35 35 28 25 31 37 37 35 32 29 27 27 28 28 27 27 27 27 27 27 28 27 26 25 23 21 20 20 19 19 20 20
1 2 2 3 4 4 7 8 6 6 6 3 2 2 2 2 3 4 4 3 2 4 3 3 2 2 3 3 3 5 7 8 5 6 14 18 19 22 22 21 19 15 12 10 9 10 12 14 16 17 17 20 24 27 31 33 29 25 27 32 36 37 33 29 27 26 27 29 29 28 27 26 26 26 26 27 27 26 24 23 21 20 21 21 21 21
3 2 2 4 5 4 6 6 7 7 4 2 2 1 1 2 3 5 4 3 4 3 3 4 2 1 3 3 5 8 10 11 9 11 15 17 19 22 23 21 20 17 13 11 10 11 12 13 13 12 15 20 23 23 24 26 27 27 28 30 33 36 34 30 30 29 28 28 29 27 26 26 25 24 24 24 25 26 25 24 23 21 22 22 21 22
4 0 2 3 4 5 6 7 9 9 6 3 4 4 4 4 3 5 2 3 4 2 3 5 3 1 2 3 6 9 10 11 13 14 15 16 18 21 22 21 20 18 16 14 11 12 15 17 16 14 15 20 23 23 20 20 24 27 29 29 29 32 34 33 33 31 30 29 29 27 26 26 26 25 24 24 23 24 24 24 24 22 22 22 22 22
0 1 2 3 2 1 2 2 2 4 4 3 5 7 7 5 2 5 3 4 3 2 3 5 4 3 2 3 4 5 7 11 13 13 14 17 20 21 21 20 20 19 18 17 14 12 14 18 16 13 13 16 19 22 22 20 21 23 26 27 27 30 34 35 35 34 33 31 30 28 26 26 28 27 25 25 24 24 24 24 24 23 22 23 23 23
2 1 2 4 3 3 3 4 4 2 3 5 7 10 9 6 4 5 4 3 4 4 3 1 8 12 6 4 5 3 5 10 13 14 15 16 19 22 22 22 21 20 19 18 18 16 15 16 15 11 9 10 13 18 20 18 18 19 22 24 25 28 30 32 34 34 34 33 31 29 28 28 29 28 26 25 25 25 25 24 25 25 24 23 23 24
3 3 3 2 0 2 4 6 5 4 4 4 7 10 9 7 7 6 3 4 7 6 2 1 10 16 10 8 8 5 5 8 12 16 16 17 19 22 23 23 22 21 20 19 20 20 19 19 18 16 13 12 13 15 14 13 14 16 18 20 24 27 29 31 32 32 32 32 31 30 29 29 30 30 28 27 26 25 25 24 25 26 26 25 24 24
4 1 2 1 4 6 4 4 5 5 3 4 7 9 11 9 6 5 1 3 5 5 6 6 9 12 11 11 9 6 6 10 16 19 18 18 20 21 22 22 20 20 20 20 21 22 22 21 20 18 18 16 14 14 15 16 15 15 16 18 22 25 27 28 29 28 27 28 28 28 28 29 30 31 30 30 29 27 26 26 25 26 27 27 27 26
3 1 4 2 3 6 8 7 9 9 6 5 8 10 12 10 6 7 4 4 6 9 14 14 11 8 5 6 9 10 13 17 20 22 19 18 20 22 23 22 19 19 19 19 21 22 21 21 21 20 18 17 15 13 14 16 16 15 18 19 19 20 20 20 21 22 23 24 25 25 25 26 28 30 32 32 32 30 29 28 27 27 28 29 29 29
3 2 5 4 3 4 7 8 12 12 5 3 8 10 10 9 9 10 8 9 10 11 15 17 14 6 0 4 10 14 17 20 21 21 20 19 20 22 24 22 19 19 19 19 21 22 22 21 20 19 19 17 15 14 13 12 10 9 13 16 16 15 15 15 16 16 17 18 19 21 22 23 24 26 29 30 31 31 30 29 28 28 28 29 30 30
3 2 4 4 4 3 6 8 11 11 3 6 10 11 9 5 5 5 5 7 10 12 13 13 11 4 2 8 13 14 16 19 20 21 22 21 21 22 24 24 22 21 21 21 21 22 22 22 20 18 18 17 16 14 14 12 8 6 6 7 10 12 14 14 15 14 14 14 15 16 19 21 21 22 23 24 25 27 27 28 29 29 29 30 30 30
3 2 2 3 3 3 7 7 8 7 4 5 6 7 6 4 7 5 4 7 13 15 12 8 7 5 4 8 11 12 14 17 19 22 24 25 24 24 24 24 23 22 21 21 21 21 20 20 20 19 18 18 17 15 14 13 11 9 7 5 3 5 10 13 13 14 14 14 13 14 15 16 16 17 18 18 19 20 22 25 27 29 31 32 31 31
4 3 1 2 3 2 6 5 5 5 4 2 6 5 6 6 8 9 7 6 8 7 9 10 10 8 8 9 9 11 13 17 21 24 26 26 26 25 23 23 22 22 21 20 19 19 18 18 19 19 18 18 18 16 15 15 15 15 12 9 6 4 4 7 10 12 14 13 13 13 13 12 12 13 14 15 15 16 18 21 25 28 31 32 32 32
4 5 2 1 2 1 4 5 5 2 1 2 6 6 8 8 11 14 10 7 10 12 14 15 13 12 14 13 13 15 19 21 23 24 24 24 25 25 24 23 21 21 21 20 19 18 17 16 16 18 19 18 16 16 16 16 17 18 17 14 12 10 7 4 3 6 9 9 10 11 11 11 11 11 11 13 15 16 18 21 23 26 28 31 33 33
3 3 2 1 1 0 2 4 3 2 1 3 6 7 6 6 9 12 10 8 8 10 13 14 13 15 21 23 20 21 24 26 24 23 23 22 22 24 23 22 20 19 19 19 19 19 18 16 13 14 17 18 16 15 15 14 15 17 18 17 16 15 14 12 9 7 5 5 6 7 7 7 8 9 10 12 14 16 18 20 22 23 25 27 29 31
5 2 2 2 2 1 1 1 1 2 3 4 4 4 3 4 3 5 7 6 7 4 6 13 16 17 21 24 24 24 27 25 20 17 20 22 22 23 24 22 20 18 16 17 19 19 19 18 15 14 15 16 15 14 14 12 12 13 15 16 16 16 15 15 14 13 10 6 2 1 3 4 4 6 8 11 13 14 15 16 17 18 21 22 23 25
4 3 3 2 1 2 3 2 2 1 2 2 4 5 7 8 4 7 10 4 3 3 3 7 13 19 22 22 23 25 25 17 8 10 19 24 24 24 24 22 20 17 15 15 17 18 19 19 19 17 14 14 14 13 11 10 10 10 11 12 13 14 14 14 14 14 13 12 9 5 2 3 5 5 6 9 11 11 12 14 15 15 16 17 19 20
5 3 4 4 1 2 4 2 0 2 4 4 5 6 11 11 4 10 9 2 3 4 10 9 10 17 22 23 25 24 17 7 2 7 20 26 24 23 22 19 18 17 14 13 13 15 17 16 16 16 13 11 11 9 8 8 9 9 8 9 10 11 12 13 12 12 12 12 11 9 7 4 2 1 2 4 6 6 7 12 14 14 14 14 14 15
5 3 3 3 0 1 2 1 1 2 3 3 5 6 11 10 4 7 6 2 4 2 16 23 20 21 24 26 25 17 9 8 10 15 23 26 23 21 19 17 16 15 13 12 10 10 12 10 10 11 11 10 8 6 6 7 8 8 7 7 7 9 10 10 9 9 9 10 10 9 7 7 6 5 4 4 4 5 4 7 10 11 12 13 12 13
3 1 1 2 2 1 1 2 2 2 3 4 4 8 11 7 3 5 3 5 3 2 17 25 27 28 29 27 22 13 12 21 25 26 27 26 23 20 18 16 14 13 11 10 8 6 6 6 6 7 8 7 5 4 5 6 8 8 7 6 7 7 7 7 6 5 5 5 7 7 6 5 5 5 5 6 7 8 8 6 6 8 10 11 12 13
1 1 1 1 2 1 2 2 1 3 3 3 3 8 11 5 1 2 4 3 8 12 17 21 24 27 27 25 24 22 23 29 31 29 26 23 22 21 17 14 13 10 8 7 4 3 2 1 2 3 4 4 4 5 5 6 7 6 6 6 6 7 6 5 5 4 4 2 2 5 5 3 4 5 5 5 6 7 8 8 7 6 7 9 10 12
2 0 1 2 2 0 1 2 1 2 4 4 4 5 7 3 6 7 9 11 14 17 19 20 22 26 27 28 31 32 31 31 28 26 24 21 20 18 14 11 10 8 6 5 3 4 4 4 5 6 6 5 5 6 7 6 5 5 6 6 7 7 7 6 6 6 6 7 7 7 8 6 5 5 5 5 6 6 6 6 6 5 6 7 8 9
2 2 1 2 1 1 1 0 2 5 4 4 3 1 3 8 13 15 15 15 16 18 20 21 22 26 31 34 34 32 31 29 26 23 21 19 16 14 12 10 8 6 5 4 5 7 9 9 10 10 10 9 8 8 8 8 7 6 6 7 8 9 9 8 8 7 8 9 9 10 10 9 8 6 4 4 6 5 4 4 4 5 6 7 9 8
3 3 4 2 1 2 3 4 6 5 2 6 10 11 11 13 14 15 16 16 17 18 19 21 24 27 31 34 31 29 27 25 23 21 19 17 15 13 12 10 7 5 4 4 6 8 10 11 12 13 12 12 11 9 9 10 9 9 9 9 9 11 11 11 10 9 9 9 9 10 10 9 7 5 2 2 3 3 3 3 4 4 5 6 7 7
3 3 3 2 1 2 1 2 3 5 10 15 16 14 15 14 12 13 14 15 16 17 19 22 23 23 23 23 24 25 25 23 22 20 17 16 14 12 11 9 6 4 3 3 5 8 10 10 11 12 12 12 11 9 8 8 8 9 10 11 11 12 13 13 12 12 11 10 9 9 9 9 7 4 2 2 1 1 1 2 3 3 3 3 3 4
7 9 3 1 2 2 1 4 3 2 8 15 17 14 13 14 11 10 12 14 14 15 17 19 20 19 18 18 19 23 24 23 22 20 18 17 16 14 11 9 7 4 2 2 4 6 9 10 11 12 12 11 9 7 6 5 5 6 8 10 12 12 13 13 13 13 12 11 9 8 8 9 9 7 6 5 4 4 3 2 2 4 3 3 3 4
5 9 5 2 2 1 2 5 6 3 7 9 12 12 11 11 10 8 9 10 10 11 13 14 14 15 17 19 21 25 26 24 22 21 19 17 16 14 11 9 7 4 2 1 3 5 7 9 11 11 9 7 5 5 5 5 5 6 8 9 10 11 12 12 13 13 13 12 11 10 9 9 9 9 9 9 8 7 6 5 5 6 5 4 6 8
3 6 2 0 3 1 1 8 10 7 4 5 6 6 9 11 10 8 7 7 8 9 10 11 11 12 15 19 22 24 24 21 19 19 18 16 14 12 10 8 6 4 2 2 3 5 6 8 9 8 5 5 6 7 7 8 8 8 10 10 10 11 12 13 13 14 14 13 13 12 11 11 11 11 12 11 11 10 9 9 9 10 10 9 10 12
1 3 0 3 3 1 2 4 6 4 2 5 10 8 5 8 10 10 9 9 9 8 7 7 9 10 13 15 16 17 18 17 15 15 15 14 13 12 10 8 7 5 3 3 3 4 6 7 8 6 5 7 9 10 11 12 12 12 12 12 12 11 12 13 13 13 13 13 14 14 14 14 13 13 13 14 14 14 13 13 13 13 13 14 14 15
1 1 2 3 2 3 4 2 1 2 2 3 7 9 7 5 5 8 9 11 13 11 10 10 10 10 11 11 11 11 13 14 14 14 15 16 15 14 11 8 6 5 3 3 4 5 5 6 6 7 7 9 12 13 13 12 10 9 9 9 9 10 10 12 13 13 12 13 14 15 16 16 16 15 15 15 16 17 17 17 17 16 15 14 14 14
Wind_Direction
184 126 178 199 194 209 229 212 220 243 260 318 303 300 228 195 192 184 184 179 170 166 183 170 157 158 163 170 153 146 163 178 193 185 157 159 166 171 176 178 183 188 182 175 172 176 179 178 178 173 172 174 176 183 186 186 189 191 183 182 184 177 179 181 173 169 167 164 165 167 175 177 172 174 170 165 163 164 164 164 168 165 164 162 159 160
164 147 213 213 208 209 225 234 237 248 254 265 264 285 289 257 191 179 173 171 167 143 138 153 133 153 166 158 154 148 152 175 195 187 163 162 165 170 175 176 181 182 175 169 167 171 175 175 176 174 174 176 178 183 186 188 191 194 189 187 189 184 185 186 180 178 173 171 167 163 171 178 178 185 191 187 175 173 178 174 174 173 172 170 169 168
164 202 230 218 214 213 227 243 250 253 242 246 251 265 295 308 99 142 153 166 175 137 138 154 130 140 155 145 149 160 169 184 195 196 181 172 169 169 170 170 175 173 170 171 168 169 173 174 176 176 177 179 180 182 187 192 195 197 197 194 194 190 186 186 186 184 177 174 170 163 168 177 182 191 203 205 193 191 200 193 185 183 182 183 183 181
186 226 228 221 211 208 228 238 246 263 248 229 242 244 237 173 119 111 162 184 188 112 141 140 106 115 131 136 156 175 182 166 178 204 206 188 177 173 169 166 172 169 167 172 172 172 173 174 177 178 179 180 181 183 186 192 196 200 201 198 195 192 188 188 187 185 179 174 171 167 171 179 186 193 206 212 204 199 203 203 201 195 191 193 192 191
215 231 217 213 214 203 217 232 228 243 253 237 223 203 188 175 157 157 174 180 139 77 130 119 77 93 152 169 188 183 184 147 157 182 205 216 197 179 173 169 173 172 169 174 174 173 175 175 178 179 181 182 183 184 188 193 199 203 202 198 195 193 190 189 186 181 178 174 171 172 175 184 191 195 204 208 201 198 199 202 204 203 202 199 198 201
233 242 219 204 229 216 210 230 220 209 232 253 231 210 187 174 173 168 158 151 108 97 165 142 101 263 202 185 187 174 187 184 177 176 182 212 223 194 186 184 181 176 171 176 176 175 177 177 178 180 182 185 186 187 191 197 202 203 201 200 199 197 193 190 185 180 179 175 174 178 180 186 193 195 200 203 199 194 199 203 203 205 204 201 202 203
234 242 218 196 223 224 216 232 224 202 206 245 237 211 183 174 173 167 159 160 160 180 194 183 123 171 226 206 185 174 188 191 188 187 183 194 209 205 202 201 195 188 174 175 178 178 179 179 180 182 183 187 189 190 194 198 202 202 202 202 204 204 197 190 184 182 181 178 177 183 186 189 195 196 197 202 202 198 202 205 203 206 202 199 204 205
230 232 218 201 215 222 220 235 230 196 187 237 241 198 164 169 168 169 174 182 188 125 178 203 123 109 224 221 176 166 182 192 191 195 188 187 195 203 209 211 206 201 187 178 177 178 180 181 183 184 185 189 191 191 195 198 202 204 204 205 208 209 200 191 186 185 184 182 181 186 192 195 199 201 200 202 205 207 210 207 202 205 202 199 203 204
231 222 212 192 202 218 215 225 224 194 188 236 238 211 167 167 174 177 182 189 172 99 153 213 160 103 248 222 146 158 181 197 200 197 189 184 191 200 207 213 211 207 200 186 178 179 183 183 185 188 188 190 193 194 197 200 202 206 208 208 210 210 201 194 190 189 187 185 184 191 199 202 203 205 204 205 209 212 210 204 202 204 201 199 202 202
250 238 224 185 185 215 222 230 221 197 216 235 232 228 189 166 179 180 185 182 136 108 192 208 183 134 244 198 147 171 196 206 207 200 190 184 190 197 202 209 211 207 207 198 184 179 185 186 186 191 192 192 195 198 199 201 203 206 209 209 211 211 203 196 195 192 190 188 188 195 203 206 206 204 203 205 207 211 208 198 198 203 201 200 202 201
256 258 250 206 189 199 208 230 225 210 226 239 286 283 274 66 141 156 178 157 129 197 218 205 189 153 199 215 175 191 207 196 192 193 193 187 189 195 199 204 208 207 208 206 196 184 184 188 187 188 193 194 196 198 199 200 203 206 209 209 211 212 205 198 197 195 193 191 192 197 203 207 208 203 201 201 198 204 206 196 195 201 205 205 201 200
267 265 266 244 224 196 186 226 236 226 224 213 57 54 32 340 4 48 145 150 159 221 221 198 185 162 200 230 200 208 209 174 180 187 188 185 187 194 198 200 205 209 209 210 206 193 179 187 188 187 192 194 194 196 198 200 204 206 208 209 210 213 210 200 198 198 197 196 196 198 202 206 206 201 199 197 194 199 202 196 197 202 208 210 202 199
298 260 249 256 250 202 155 203 268 272 233 128 76 73 85 351 354 4 243 181 188 234 213 181 169 171 232 246 214 208 197 170 183 188 184 182 186 193 197 199 204 208 210 211 210 200 184 184 189 188 190 193 194 195 198 201 203 205 206 207 209 212 212 205 200 200 201 201 200 200 203 204 203 201 200 199 198 200 202 201 202 204 208 209 203 200
329 288 270 269 268 205 163 172 196 264 298 133 140 117 121 148 137 234 244 173 198 246 194 157 157 200 252 313 302 214 186 177 183 183 183 183 186 191 193 198 202 206 208 210 211 205 193 183 187 191 190 193 196 197 199 201 202 205 206 206 208 212 213 209 204 203 205 205 202 200 202 202 201 201 203 205 204 203 205 208 208 207 207 208 206 203
299 294 275 256 242 188 169 173 165 164 256 204 177 139 140 166 154 196 212 159 197 226 86 135 157 250 201 282 316 213 161 169 173 175 181 182 187 191 191 195 199 204 207 209 210 208 201 188 186 190 191 194 197 197 198 201 203 206 207 206 208 211 213 212 209 207 208 206 202 200 201 201 200 203 206 208 210 209 209 212 212 210 210 210 210 208
313 265 276 303 272 172 168 200 154 117 308 260 151 119 158 190 160 170 203 180 166 168 40 94 152 1 179 261 325 80 129 147 158 162 170 178 185 187 189 195 199 203 207 208 209 208 203 196 191 192 192 193 197 196 196 201 205 207 208 207 208 210 212 212 211 211 209 207 203 201 201 201 201 206 209 208 211 214 215 215 214 213 214 212 212 212
3 272 291 321 318 112 133 237 162 128 178 280 31 169 218 185 138 133 245 250 106 132 58 21 98 67 156 294 342 52 111 132 151 153 160 171 178 182 187 194 199 202 205 207 210 210 207 204 198 194 194 193 195 196 195 200 206 209 209 208 207 210 212 212 213 213 211 207 203 203 204 204 204 208 212 211 211 214 216 217 216 215 216 214 214 213
62 274 286 320 338 336 340 315 194 162 161 151 273 240 240 162 121 113 226 338 62 124 80 16 54 76 99 326 327 8 106 124 135 135 143 156 162 167 174 185 195 200 202 204 206 209 210 208 202 198 198 196 195 195 193 198 206 209 212 212 209 210 212 212 213 213 212 208 203 203 206 208 209 211 214 214 213 214 215 218 217 216 217 216 216 215
93 320 286 327 0 313 330 27 176 225 176 157 199 241 150 171 224 137 171 193 108 119 100 14 355 344 128 207 284 355 36 22 110 119 115 116 118 116 121 140 164 179 191 200 202 206 208 207 204 202 201 199 197 193 187 184 200 208 210 212 212 213 215 214 213 212 213 211 206 205 206 210 213 214 215 216 216 215 214 216 217 216 216 216 215 217
18 95 272 311 345 312 328 70 151 257 222 177 287 316 110 166 195 164 181 175 129 138 141 65 356 273 244 243 296 31 18 353 352 92 94 86 85 88 95 105 121 143 170 194 202 205 206 205 204 203 203 202 199 195 190 183 191 205 206 207 209 211 213 214 214 213 212 212 210 209 208 210 214 217 218 218 220 221 218 215 216 217 216 217 216 217
2 78 290 309 340 340 357 58 203 219 201 192 285 299 257 263 233 177 219 166 122 141 144 124 187 263 268 253 54 42 37 18 352 53 77 74 74 79 84 87 97 112 127 164 189 195 199 203 207 208 208 208 205 203 200 196 195 204 208 209 211 211 211 212 214 214 213 213 213 212 211 212 215 219 220 221 223 226 226 222 219 219 218 219 220 219
0 60 340 311 337 338 280 290 286 261 239 193 156 204 221 208 170 175 273 300 84 118 145 149 173 252 329 60 91 68 45 27 2 54 78 73 71 74 75 77 84 92 94 100 134 165 183 199 208 210 207 206 208 208 205 202 203 207 209 211 213 213 213 212 213 214 212 213 214 214 213 213 214 218 221 222 224 226 229 229 227 224 223 221 222 224
326 83 25 301 290 270 269 285 293 273 253 208 159 194 196 164 140 150 215 249 58 80 111 102 108 113 47 41 100 86 58 48 28 49 73 74 72 74 75 77 80 85 89 91 107 140 171 195 205 204 199 202 208 210 208 209 212 213 211 211 212 213 213 211 212 213 212 211 213 214 215 215 215 218 221 223 224 225 226 229 231 231 230 227 224 225
339 79 33 313 292 295 297 320 349 354 10 36 341 354 22 258 174 145 177 173 103 100 115 84 68 134 86 77 120 103 78 81 85 75 73 72 72 78 82 83 83 81 83 90 103 121 148 179 191 189 193 200 205 206 205 207 211 212 213 214 213 211 211 211 212 214 214 212 212 214 215 217 217 217 220 224 226 227 226 226 229 230 232 232 229 228
346 37 61 13 343 347 349 360 2 359 19 22 309 327 335 287 163 130 105 72 93 182 150 120 123 156 87 96 122 116 105 105 101 95 95 90 82 82 83 84 86 85 85 89 96 105 124 148 165 176 183 187 195 200 201 203 206 208 210 215 215 210 208 210 213 215 215 213 211 211 213 218 221 218 217 220 224 228 230 229 227 227 230 233 233 232
52 173 111 98 89 43 23 6 337 329 339 319 307 336 341 325 87 124 112 66 98 169 119 117 135 111 82 93 103 113 122 117 107 100 101 99 95 91 87 84 86 87 88 91 97 101 110 124 142 171 179 169 177 192 200 205 208 206 206 210 214 213 208 208 212 213 213 213 211 210 212 216 221 221 218 217 219 222 226 229 229 228 230 233 235 235
120 47 74 122 154 169 182 222 229 264 302 306 331 346 341 338 50 97 109 107 146 133 60 88 142 131 138 144 124 129 131 125 121 115 108 102 100 97 94 91 89 89 89 92 97 100 100 106 116 136 159 165 176 190 194 197 203 208 210 207 207 212 210 207 209 211 211 211 211 212 214 214 218 223 224 223 222 221 221 223 226 228 231 234 236 238
95 20 21 102 312 250 216 235 260 292 290 308 344 349 346 360 45 56 67 145 147 119 55 225 142 135 153 159 150 172 163 133 124 119 117 114 108 102 97 92 88 86 86 87 92 96 96 94 95 98 110 138 170 184 183 180 190 204 211 207 205 210 212 209 209 211 211 211 211 212 215 215 218 223 226 227 227 226 224 222 223 226 232 235 236 237
116 11 318 54 356 329 316 305 316 327 322 342 357 359 354 2 59 83 86 151 140 127 141 154 135 132 147 152 155 176 156 126 120 120 122 120 113 107 99 92 87 84 81 81 85 90 94 94 93 93 95 106 130 154 165 170 179 182 184 191 198 204 208 207 206 209 212 213 214 217 219 220 221 224 226 228 230 229 226 224 223 224 230 235 237 237
107 329 321 35 24 340 345 351 343 339 339 351 1 9 4 7 65 90 77 85 91 113 128 126 113 108 129 157 164 161 140 127 124 122 119 115 110 105 99 94 90 87 82 80 83 85 90 95 96 96 94 93 97 109 134 154 163 156 154 167 182 190 195 199 202 207 212 214 215 218 220 222 224 226 227 229 231 230 227 225 225 223 226 233 237 239
41 331 323 32 56 339 346 358 344 332 328 17 10 8 8 17 51 72 85 89 84 102 120 119 114 104 62 137 141 149 142 130 124 119 113 110 107 102 98 95 95 95 90 86 85 83 83 88 93 93 91 89 90 90 99 120 135 137 143 157 171 180 185 192 197 199 205 212 216 216 218 222 226 229 231 232 233 234 232 229 228 227 226 230 235 238
21 342 333 42 64 336 336 355 343 327 342 55 18 357 359 29 76 88 108 117 112 116 119 116 115 127 187 126 123 137 140 128 121 118 114 111 107 103 100 98 98 100 97 92 87 82 79 80 85 89 86 83 85 87 86 91 100 103 112 137 162 172 176 185 193 192 196 206 215 219 221 223 225 227 230 232 233 234 235 234 234 234 233 234 236 238
0 25 8 48 69 320 319 342 344 341 28 46 353 333 360 70 127 107 82 124 134 134 134 130 126 134 135 118 117 127 128 122 123 122 118 116 112 107 105 104 101 100 98 94 90 85 82 77 76 82 88 87 85 84 80 77 76 75 75 81 109 147 161 173 180 178 179 189 200 211 216 217 218 219 223 229 230 230 231 232 236 238 239 240 240 238
5 47 31 50 99 278 306 339 15 26 51 2 299 320 19 55 108 100 89 119 121 112 118 122 123 122 112 106 113 119 119 121 126 126 123 120 116 112 110 109 105 100 96 96 92 87 85 82 75 75 83 90 89 84 80 75 70 66 71 82 81 79 135 173 176 165 161 167 178 186 189 192 200 209 217 224 228 227 227 229 233 236 238 240 240 238
15 23 355 26 109 212 317 22 54 69 131 316 322 355 28 44 78 83 74 83 94 98 108 114 117 118 107 94 91 99 109 117 123 126 123 117 114 114 115 114 111 103 95 92 92 89 85 80 77 75 77 85 91 88 83 78 75 70 69 74 78 76 81 105 153 166 171 180 183 180 175 180 192 202 213 222 227 229 229 228 229 232 234 236 236 238
68 17 6 39 84 333 11 57 105 208 271 5 350 358 22 35 68 78 59 41 72 104 115 115 116 116 112 108 103 102 106 108 108 114 120 117 111 111 114 115 113 107 95 84 85 92 89 81 79 78 74 75 82 88 86 79 75 74 70 69 72 75 79 81 85 99 132 177 197 196 191 196 204 207 219 232 233 231 230 229 230 231 232 235 236 238
101 65 38 19 352 63 75 59 202 276 334 3 346 336 351 333 339 98 90 42 16 24 107 121 121 118 116 118 118 113 106 100 91 93 111 121 118 111 109 110 110 109 99 85 84 91 90 84 84 85 77 72 72 77 81 77 71 72 72 68 68 72 76 79 81 81 79 79 88 221 242 260 251 226 229 242 242 235 232 234 238 239 238 239 240 241
91 105 114 98 349 54 79 34 7 338 283 278 283 299 326 337 359 98 100 77 351 6 92 123 125 125 124 123 122 114 103 95 82 85 105 118 123 117 112 111 112 113 110 99 91 90 88 85 86 87 82 73 67 65 63 59 57 61 66 65 63 65 71 76 79 80 78 76 71 62 33 322 299 273 254 256 256 250 243 242 246 251 251 249 246 244
52 60 91 92 6 26 81 78 17 201 218 245 258 290 331 347 40 95 88 58 302 98 124 132 126 130 134 132 130 123 109 102 168 120 113 117 122 122 119 116 115 115 116 114 103 91 87 88 89 89 83 74 64 53 44 42 41 44 52 55 53 56 62 69 77 85 87 85 83 86 92 90 64 347 291 278 277 276 258 247 249 257 262 261 258 254
33 26 48 67 2 5 89 115 252 221 225 259 267 300 330 339 28 85 97 217 296 179 163 163 154 148 147 142 137 136 139 153 153 136 128 125 123 123 125 124 122 120 121 123 117 101 94 95 94 86 75 65 52 32 16 15 18 23 32 35 34 41 51 59 70 85 93 89 83 84 96 104 102 94 70 37 13 2 328 270 256 261 265 264 264 264
15 22 63 120 175 204 156 177 266 263 239 250 294 340 347 347 49 78 164 217 342 108 172 168 156 152 154 150 144 143 149 147 140 135 135 133 128 126 128 131 131 127 125 126 126 118 105 94 86 77 66 55 34 359 345 344 347 355 4 7 9 18 28 35 42 57 81 97 87 73 73 88 88 80 69 55 42 30 18 350 300 279 276 274 271 268
342 341 349 159 178 200 172 154 322 291 269 270 313 5 14 15 176 157 181 166 75 105 149 160 155 155 155 149 141 134 132 135 136 137 139 139 134 130 130 134 137 136 137 141 151 166 160 108 45 42 32 20 350 330 329 336 336 333 333 336 342 348 351 356 358 355 349 347 26 30 25 34 45 43 43 38 28 27 25 14 351 322 308 303 295 285
181 177 305 236 215 210 127 95 86 235 279 323 325 343 13 72 167 151 125 106 87 100 127 142 150 156 151 138 132 132 132 133 135 138 140 140 139 138 139 145 148 152 159 174 228 262 274 287 299 312 317 318 318 314 315 324 328 316 305 306 312 314 314 316 314 310 316 316 319 332 341 345 358 11 16 6 356 1 17 19 12 4 354 345 336 316
221 169 198 264 289 72 98 84 208 227 274 352 57 105 85 122 137 130 116 107 95 97 112 122 131 143 144 135 131 132 133 133 135 138 139 143 147 151 158 168 175 179 181 198 238 261 275 284 293 301 299 292 293 295 297 301 303 301 297 294 293 293 292 295 297 295 297 300 304 314 322 328 341 357 3 340 331 350 24 33 27 25 21 11 2 352
259 193 163 172 237 188 177 204 209 205 153 102 113 120 118 122 126 123 118 112 102 101 110 118 122 131 136 136 135 136 136 138 144 146 146 149 156 161 167 176 186 192 204 232 248 259 269 276 285 295 295 289 288 287 285 284 282 283 289 292 291 289 288 289 292 292 292 295 299 304 307 311 325 347 4 339 338 7 34 30 18 15 15 9 1 357
353 31 124 147 286 302 34 119 170 155 125 119 120 120 122 127 129 124 120 115 110 110 115 122 128 132 135 137 139 140 143 147 148 150 153 156 162 168 171 175 182 193 221 258 272 283 292 294 293 293 291 291 295 299 297 292 287 284 283 285 287 288 288 290 291 291 292 293 295 296 296 296 298 293 261 220 165 77 1 349 344 337 346 356 351 348
14 20 28 79 12 3 13 10 5 171 147 130 128 131 130 129 135 135 123 115 115 117 120 126 135 140 144 150 149 146 150 153 150 149 155 158 158 160 161 162 164 165 188 273 293 303 310 314 313 308 304 301 305 313 312 303 299 292 282 279 282 283 284 289 291 290 291 293 294 291 286 284 283 276 263 242 214 205 221 262 300 302 304 305 302 311
357 8 9 3 13 132 200 342 10 129 163 138 136 153 153 141 145 151 140 133 133 129 127 135 148 154 153 156 157 154 154 157 156 153 154 154 154 153 152 151 153 152 165 263 298 305 311 318 322 322 320 312 305 305 294 279 278 282 280 280 283 284 285 287 288 287 288 291 294 293 286 281 278 275 270 260 244 234 237 246 258 262 264 280 297 303
331 347 1 39 349 7 308 347 17 74 105 47 70 136 162 163 166 168 164 170 171 156 141 138 147 155 152 152 156 156 154 156 158 156 153 152 153 152 149 149 153 162 185 238 278 291 303 315 318 314 298 276 276 279 275 270 270 274 278 282 286 288 289 290 289 290 291 290 291 293 291 285 279 276 274 270 260 251 249 253 262 263 254 255 273 288
310 300 165 83 17 318 238 315 7 69 101 25 33 50 104 157 175 179 183 192 191 189 193 179 160 157 156 155 159 161 157 156 160 160 157 156 157 158 159 159 159 165 184 221 259 287 306 311 306 289 262 261 273 278 280 282 283 283 285 289 293 293 293 295 297 298 297 295 292 291 292 290 286 281 278 275 270 264 256 250 253 260 261 259 263 269
142 215 166 137 181 225 215 226 13 75 138 50 30 30 42 78 145 168 182 197 199 201 214 217 205 192 182 177 182 183 172 163 164 167 162 156 155 157 159 166 178 183 196 239 276 300 308 299 285 271 266 273 282 287 293 297 299 298 296 298 300 298 293 293 298 301 301 299 295 293 293 295 294 292 287 282 278 276 272 264 257 256 258 261 263 264